Wellsville, NY

9:10 PM EST on November 24, 2017 (GMT -0500)
Wellsville Municipal-Tarantine

Weather History for KELZ - March, 2014

Change the Weather History Date:

Thursday, March 27, 2014

  Actual Average (KDSV) Record (KDSV)
Temperature  
Mean Temperature 26 °F -  
Max Temperature 42 °F 48 °F 77 °F (1986)
Min Temperature 10 °F 26 °F 9 °F (1966)
Degree Days  
Heating Degree Days 40    
Moisture  
Dew Point 7 °F    
Average Humidity 48    
Maximum Humidity 74    
Minimum Humidity 22    
Precipitation  
Precipitation 0.00 in - - ()
Sea Level Pressure  
Sea Level Pressure 30.21 in    
Wind  
Wind Speed 8 mph (SSW)    
Max Wind Speed 17 mph    
Max Gust Speed 25 mph    
Visibility 10 miles    
Events Rain    
Averages and records for this station are not official NWS values.
T = Trace of Precipitation, MM = Missing Value Source: NWS Daily Summary

Daily Weather History Graph

Daily Weather History Graph

Search for Another Location

Airport or City:

Trip Planner

Search our weather history database for the weather conditions in past years. The results will help you decide how hot, cold, wet, or windy it might be!

Date:

Astronomy

Mar. 27, 2014 Rise Set
Actual Time 7:03 AM EDT 7:32 PM EDT
Civil Twilight 6:35 AM EDT 8:00 PM EDT
Nautical Twilight 6:02 AM EDT 8:33 PM EDT
Astronomical Twilight 5:28 AM EDT 9:07 PM EDT
Moon 4:56 AM EDT (3/27) 4:14 PM EDT (3/27)
Length of Visible Light 13h 24m
Length of Day
12h 28m
Waning Crescent, 13% of the Moon is Illuminated
Mar 27
Waning Crescent
Mar 30
New
Apr 7
First Quarter
Apr 15
Full
Apr 22
Last Quarter

Hourly Weather History & Observations

Time (EDT) Temp. Windchill Dew Point Humidity Pressure Visibility Wind Dir Wind Speed Gust Speed Precip Events Conditions
12:56 AM 10.9 °F -0.8 °F 1.9 °F 67% 30.31 in 10.0 mi West 8.1 mph - N/A   Clear
1:56 AM 10.0 °F 0.4 °F 3.0 °F 73% 30.32 in 10.0 mi West 5.8 mph - N/A   Clear
2:56 AM 10.0 °F 3.6 °F 3.0 °F 73% 30.32 in 10.0 mi West 3.5 mph - N/A   Clear
3:56 AM 10.9 °F 2.9 °F 3.0 °F 70% 30.30 in 10.0 mi WSW 4.6 mph - N/A   Clear
4:56 AM 10.9 °F - 3.0 °F 70% 30.30 in 10.0 mi Calm Calm - N/A   Clear
5:56 AM 10.9 °F 4.7 °F 3.0 °F 70% 30.34 in 10.0 mi SW 3.5 mph - N/A   Clear
6:56 AM 10.0 °F 3.6 °F 3.0 °F 73% 30.33 in 10.0 mi ESE 3.5 mph - N/A   Clear
7:56 AM 12.9 °F - 6.1 °F 74% 30.32 in 10.0 mi Calm Calm - N/A   Mostly Cloudy
8:56 AM 19.0 °F 12.3 °F 9.0 °F 65% 30.32 in 10.0 mi Variable 4.6 mph - N/A   Mostly Cloudy
9:56 AM 23.0 °F 13.1 °F 9.0 °F 55% 30.30 in 10.0 mi SW 9.2 mph 21.9 mph N/A   Overcast
10:56 AM 27.0 °F 18.7 °F 9.0 °F 47% 30.29 in 10.0 mi SW 8.1 mph - N/A   Partly Cloudy
11:56 AM 30.0 °F 20.5 °F 9.0 °F 41% 30.26 in 10.0 mi South 11.5 mph - N/A   Partly Cloudy
12:56 PM 34.0 °F 27.2 °F 7.0 °F 32% 30.23 in 10.0 mi South 8.1 mph 19.6 mph N/A   Scattered Clouds
1:56 PM 37.9 °F 28.5 °F 5.0 °F 25% 30.19 in 10.0 mi South 17.3 mph 24.2 mph N/A   Partly Cloudy
2:56 PM 39.9 °F 31.1 °F 3.9 °F 22% 30.17 in 10.0 mi South 17.3 mph 23.0 mph N/A   Scattered Clouds
3:56 PM 39.9 °F 32.5 °F 5.0 °F 23% 30.14 in 10.0 mi South 12.7 mph - N/A   Overcast
4:56 PM 39.9 °F 33.9 °F 5.0 °F 23% 30.11 in 10.0 mi South 9.2 mph - N/A   Overcast
5:56 PM 41.0 °F 33.9 °F 6.1 °F 24% 30.12 in 10.0 mi South 12.7 mph 21.9 mph N/A   Overcast
6:56 PM 39.9 °F 32.1 °F 8.1 °F 27% 30.10 in 10.0 mi South 13.8 mph 18.4 mph N/A   Overcast
7:56 PM 39.0 °F 31.8 °F 8.1 °F 28% 30.07 in 10.0 mi South 11.5 mph 23.0 mph N/A   Overcast
8:56 PM 37.0 °F 30.4 °F 15.1 °F 41% 30.06 in 10.0 mi South 9.2 mph 19.6 mph 0.00 in Rain Light Rain
9:56 PM 37.0 °F 29.3 °F 12.9 °F 37% 30.04 in 10.0 mi South 11.5 mph 25.3 mph 0.00 in   Overcast
10:56 PM 37.9 °F 30.0 °F 15.1 °F 39% 30.01 in 10.0 mi SSE 12.7 mph 21.9 mph N/A   Overcast
11:56 PM 39.0 °F 31.8 °F 17.1 °F 41% 29.99 in 10.0 mi South 11.5 mph 24.2 mph N/A   Overcast